Year,Month,Day,Hour,Minute,Value (Times are PST for temperature in C)
2009,09,11,00,00,13.20
2009,09,11,00,01,13.20
2009,09,11,00,02,13.20
2009,09,11,00,03,13.20
2009,09,11,00,04,13.20
2009,09,11,00,05,13.20
2009,09,11,00,06,13.20
2009,09,11,00,07,13.10
2009,09,11,00,08,13.10
2009,09,11,00,09,13.10
2009,09,11,00,10,13.10
2009,09,11,00,11,13.10
2009,09,11,00,12,13.10
2009,09,11,00,13,13.10
2009,09,11,00,14,13.10
2009,09,11,00,15,13.10
2009,09,11,00,16,13.10
2009,09,11,00,17,13.10
2009,09,11,00,18,13.10
2009,09,11,00,19,13.00
2009,09,11,00,20,13.00
2009,09,11,00,21,13.00
2009,09,11,00,22,13.00
2009,09,11,00,23,13.00
2009,09,11,00,24,13.00
2009,09,11,00,25,13.00
2009,09,11,00,26,12.90
2009,09,11,00,27,12.90
2009,09,11,00,28,12.90
2009,09,11,00,29,12.90
2009,09,11,00,30,12.90
2009,09,11,00,31,12.90
2009,09,11,00,32,12.90
2009,09,11,00,33,12.90
2009,09,11,00,34,12.90
2009,09,11,00,35,12.90
2009,09,11,00,36,12.90
2009,09,11,00,37,13.00
2009,09,11,00,38,13.00
2009,09,11,00,39,13.00
2009,09,11,00,40,13.00
2009,09,11,00,41,13.00
2009,09,11,00,42,13.00
2009,09,11,00,43,13.00
2009,09,11,00,44,13.00
2009,09,11,00,45,13.00
2009,09,11,00,46,13.00
2009,09,11,00,47,13.00
2009,09,11,00,48,13.00
2009,09,11,00,49,12.90
2009,09,11,00,50,12.90
2009,09,11,00,51,13.00
2009,09,11,00,52,13.00
2009,09,11,00,53,13.00
2009,09,11,00,54,13.00
2009,09,11,00,55,13.00
2009,09,11,00,56,13.00
2009,09,11,00,57,12.90
2009,09,11,00,58,12.90
2009,09,11,00,59,12.90
2009,09,11,01,00,12.90
2009,09,11,01,01,12.90
2009,09,11,01,02,12.90
2009,09,11,01,03,12.90
2009,09,11,01,04,12.90
2009,09,11,01,05,12.90
2009,09,11,01,06,12.90
2009,09,11,01,07,12.90
2009,09,11,01,08,12.80
2009,09,11,01,09,12.80
2009,09,11,01,10,12.80
2009,09,11,01,11,12.80
2009,09,11,01,12,12.80
2009,09,11,01,13,12.90
2009,09,11,01,14,12.90
2009,09,11,01,15,12.90
2009,09,11,01,16,12.80
2009,09,11,01,17,12.80
2009,09,11,01,18,12.70
2009,09,11,01,19,12.70
2009,09,11,01,20,12.70
2009,09,11,01,21,12.60
2009,09,11,01,22,12.60
2009,09,11,01,23,12.60
2009,09,11,01,24,12.50
2009,09,11,01,25,12.50
2009,09,11,01,26,12.40
2009,09,11,01,27,12.40
2009,09,11,01,28,12.40
2009,09,11,01,29,12.30
2009,09,11,01,30,12.30
2009,09,11,01,31,12.30
2009,09,11,01,32,12.20
2009,09,11,01,33,12.20
2009,09,11,01,34,12.20
2009,09,11,01,35,12.10
2009,09,11,01,36,12.10
2009,09,11,01,37,12.00
2009,09,11,01,38,12.00
2009,09,11,01,39,12.00
2009,09,11,01,40,11.90
2009,09,11,01,41,11.90
2009,09,11,01,42,11.90
2009,09,11,01,43,11.90
2009,09,11,01,44,11.80
2009,09,11,01,45,11.80
2009,09,11,01,46,11.80
2009,09,11,01,47,11.80
2009,09,11,01,48,11.70
2009,09,11,01,49,11.70
2009,09,11,01,50,11.70
2009,09,11,01,51,11.70
2009,09,11,01,52,11.70
2009,09,11,01,53,11.70
2009,09,11,01,54,11.70
2009,09,11,01,55,11.70
2009,09,11,01,56,11.70
2009,09,11,01,57,11.70
2009,09,11,01,58,11.60
2009,09,11,01,59,11.70
2009,09,11,02,00,11.60
2009,09,11,02,01,11.60
2009,09,11,02,02,11.60
2009,09,11,02,03,11.60
2009,09,11,02,04,11.60
2009,09,11,02,05,11.60
2009,09,11,02,06,11.60
2009,09,11,02,07,11.60
2009,09,11,02,08,11.60
2009,09,11,02,09,11.60
2009,09,11,02,10,11.50
2009,09,11,02,11,11.50
2009,09,11,02,12,11.50
2009,09,11,02,13,11.50
2009,09,11,02,14,11.40
2009,09,11,02,15,11.40
2009,09,11,02,16,11.40
2009,09,11,02,17,11.40
2009,09,11,02,18,11.40
2009,09,11,02,19,11.40
2009,09,11,02,20,11.30
2009,09,11,02,21,11.30
2009,09,11,02,22,11.30
2009,09,11,02,23,11.30
2009,09,11,02,24,11.30
2009,09,11,02,25,11.30
2009,09,11,02,26,11.20
2009,09,11,02,27,11.20
2009,09,11,02,28,11.20
2009,09,11,02,29,11.20
2009,09,11,02,30,11.30
2009,09,11,02,31,11.30
2009,09,11,02,32,11.30
2009,09,11,02,33,11.30
2009,09,11,02,34,11.30
2009,09,11,02,35,11.30
2009,09,11,02,36,11.30
2009,09,11,02,37,11.30
2009,09,11,02,38,11.30
2009,09,11,02,39,11.30
2009,09,11,02,40,11.30
2009,09,11,02,41,11.30
2009,09,11,02,42,11.30
2009,09,11,02,43,11.30
2009,09,11,02,44,11.30
2009,09,11,02,45,11.30
2009,09,11,02,46,11.30
2009,09,11,02,47,11.30
2009,09,11,02,48,11.30
2009,09,11,02,49,11.30
2009,09,11,02,50,11.30
2009,09,11,02,51,11.30
2009,09,11,02,52,11.30
2009,09,11,02,53,11.20
2009,09,11,02,54,11.20
2009,09,11,02,55,11.20
2009,09,11,02,56,11.20
2009,09,11,02,57,11.20
2009,09,11,02,58,11.20
2009,09,11,02,59,11.20
2009,09,11,03,00,11.20
2009,09,11,03,01,11.20
2009,09,11,03,02,11.20
2009,09,11,03,03,11.20
2009,09,11,03,04,11.20
2009,09,11,03,05,11.20
2009,09,11,03,06,11.10
2009,09,11,03,07,11.10
2009,09,11,03,08,11.10
2009,09,11,03,09,11.10
2009,09,11,03,10,11.10
2009,09,11,03,11,11.10
2009,09,11,03,12,11.10
2009,09,11,03,13,11.10
2009,09,11,03,14,11.10
2009,09,11,03,15,11.10
2009,09,11,03,16,11.10
2009,09,11,03,17,11.10
2009,09,11,03,18,11.10
2009,09,11,03,19,11.00
2009,09,11,03,20,11.00
2009,09,11,03,21,11.00
2009,09,11,03,22,11.00
2009,09,11,03,23,11.00
2009,09,11,03,24,11.00
2009,09,11,03,25,11.00
2009,09,11,03,26,11.10
2009,09,11,03,27,11.20
2009,09,11,03,28,11.30
2009,09,11,03,29,11.40
2009,09,11,03,30,11.60
2009,09,11,03,31,11.60
2009,09,11,03,32,11.60
2009,09,11,03,33,11.70
2009,09,11,03,34,11.70
2009,09,11,03,35,11.80
2009,09,11,03,36,11.90
2009,09,11,03,37,12.00
2009,09,11,03,38,12.10
2009,09,11,03,39,12.10
2009,09,11,03,40,12.10
2009,09,11,03,41,12.20
2009,09,11,03,42,12.20
2009,09,11,03,43,12.30
2009,09,11,03,44,12.40
2009,09,11,03,45,12.50
2009,09,11,03,46,12.50
2009,09,11,03,47,12.60
2009,09,11,03,48,12.60
2009,09,11,03,49,12.60
2009,09,11,03,50,12.70
2009,09,11,03,51,12.70
2009,09,11,03,52,12.80
2009,09,11,03,53,12.80
2009,09,11,03,54,12.90
2009,09,11,03,55,13.00
2009,09,11,03,56,13.00
2009,09,11,03,57,13.10
2009,09,11,03,58,13.20
2009,09,11,03,59,13.20
2009,09,11,04,00,13.20
2009,09,11,04,01,13.30
2009,09,11,04,02,13.30
2009,09,11,04,03,13.30
2009,09,11,04,04,13.30
2009,09,11,04,05,13.40
2009,09,11,04,06,13.40
2009,09,11,04,07,13.40
2009,09,11,04,08,13.50
2009,09,11,04,09,13.50
2009,09,11,04,10,13.60
2009,09,11,04,11,13.60
2009,09,11,04,12,13.70
2009,09,11,04,13,13.70
2009,09,11,04,14,13.80
2009,09,11,04,15,13.80
2009,09,11,04,16,13.80
2009,09,11,04,17,13.90
2009,09,11,04,18,13.90
2009,09,11,04,19,13.90
2009,09,11,04,20,14.00
2009,09,11,04,21,14.00
2009,09,11,04,22,14.10
2009,09,11,04,23,14.10
2009,09,11,04,24,14.10
2009,09,11,04,25,14.10
2009,09,11,04,26,14.10
2009,09,11,04,27,14.10
2009,09,11,04,28,14.10
2009,09,11,04,29,14.10
2009,09,11,04,30,14.10
2009,09,11,04,31,14.10
2009,09,11,04,32,14.10
2009,09,11,04,33,14.10
2009,09,11,04,34,14.10
2009,09,11,04,35,14.20
2009,09,11,04,36,14.20
2009,09,11,04,37,14.30
2009,09,11,04,38,14.30
2009,09,11,04,39,14.30
2009,09,11,04,40,14.40
2009,09,11,04,41,14.40
2009,09,11,04,42,14.40
2009,09,11,04,43,14.40
2009,09,11,04,44,14.40
2009,09,11,04,45,14.40
2009,09,11,04,46,14.40
2009,09,11,04,47,14.30
2009,09,11,04,48,14.30
2009,09,11,04,49,14.20
2009,09,11,04,50,14.20
2009,09,11,04,51,14.10
2009,09,11,04,52,14.00
2009,09,11,04,53,13.90
2009,09,11,04,54,13.90
2009,09,11,04,55,13.80
2009,09,11,04,56,13.80
2009,09,11,04,57,13.80
2009,09,11,04,58,13.80
2009,09,11,04,59,13.90
2009,09,11,05,00,14.00
2009,09,11,05,01,14.00
2009,09,11,05,02,14.10
2009,09,11,05,03,14.20
2009,09,11,05,04,14.20
2009,09,11,05,05,14.30
2009,09,11,05,06,14.30
2009,09,11,05,07,14.40
2009,09,11,05,08,14.40
2009,09,11,05,09,14.40
2009,09,11,05,10,14.40
2009,09,11,05,11,14.50
2009,09,11,05,12,14.50
2009,09,11,05,13,14.50
2009,09,11,05,14,14.50
2009,09,11,05,15,14.50
2009,09,11,05,16,14.50
2009,09,11,05,17,14.50
2009,09,11,05,18,14.40
2009,09,11,05,19,14.40
2009,09,11,05,20,14.40
2009,09,11,05,21,14.30
2009,09,11,05,22,14.20
2009,09,11,05,23,14.20
2009,09,11,05,24,14.10
2009,09,11,05,25,14.10
2009,09,11,05,26,14.00
2009,09,11,05,27,14.00
2009,09,11,05,28,13.90
2009,09,11,05,29,13.90
2009,09,11,05,30,13.90
2009,09,11,05,31,13.90
2009,09,11,05,32,14.00
2009,09,11,05,33,14.00
2009,09,11,05,34,14.00
2009,09,11,05,35,14.00
2009,09,11,05,36,14.00
2009,09,11,05,37,14.00
2009,09,11,05,38,14.00
2009,09,11,05,39,14.00
2009,09,11,05,40,14.00
2009,09,11,05,41,14.00
2009,09,11,05,42,14.00
2009,09,11,05,43,13.90
2009,09,11,05,44,13.90
2009,09,11,05,45,13.90
2009,09,11,05,46,13.90
2009,09,11,05,47,13.80
2009,09,11,05,48,13.80
2009,09,11,05,49,13.80
2009,09,11,05,50,13.70
2009,09,11,05,51,13.70
2009,09,11,05,52,13.60
2009,09,11,05,53,13.60
2009,09,11,05,54,13.50
2009,09,11,05,55,13.50
2009,09,11,05,56,13.50
2009,09,11,05,57,13.40
2009,09,11,05,58,13.40
2009,09,11,05,59,13.30
2009,09,11,06,00,13.30
2009,09,11,06,01,13.30
2009,09,11,06,02,13.30
2009,09,11,06,03,13.30
2009,09,11,06,04,13.20
2009,09,11,06,05,13.20
2009,09,11,06,06,13.20
2009,09,11,06,07,13.20
2009,09,11,06,08,13.30
2009,09,11,06,09,13.40
2009,09,11,06,10,13.40
2009,09,11,06,11,13.60
2009,09,11,06,12,13.70
2009,09,11,06,13,13.80
2009,09,11,06,14,13.80
2009,09,11,06,15,14.00
2009,09,11,06,16,14.00
2009,09,11,06,17,14.10
2009,09,11,06,18,14.20
2009,09,11,06,19,14.30
2009,09,11,06,20,14.30
2009,09,11,06,21,14.40
2009,09,11,06,22,14.40
2009,09,11,06,23,14.40
2009,09,11,06,24,14.40
2009,09,11,06,25,14.40
2009,09,11,06,26,14.40
2009,09,11,06,27,14.40
2009,09,11,06,28,14.40
2009,09,11,06,29,14.40
2009,09,11,06,30,14.40
2009,09,11,06,31,14.40
2009,09,11,06,32,14.40
2009,09,11,06,33,14.40
2009,09,11,06,34,14.40
2009,09,11,06,35,14.40
2009,09,11,06,36,14.40
2009,09,11,06,37,14.40
2009,09,11,06,38,14.30
2009,09,11,06,39,14.30
2009,09,11,06,40,14.30
2009,09,11,06,41,14.30
2009,09,11,06,42,14.30
2009,09,11,06,43,14.30
2009,09,11,06,44,14.30
2009,09,11,06,45,14.30
2009,09,11,06,46,14.30
2009,09,11,06,47,14.30
2009,09,11,06,48,14.30
2009,09,11,06,49,14.40
2009,09,11,06,50,14.40
2009,09,11,06,51,14.40
2009,09,11,06,52,14.40
2009,09,11,06,53,14.50
2009,09,11,06,54,14.50
2009,09,11,06,55,14.60
2009,09,11,06,56,14.60
2009,09,11,06,57,14.70
2009,09,11,06,58,14.70
2009,09,11,06,59,14.80
2009,09,11,07,00,14.80
2009,09,11,07,01,14.90
2009,09,11,07,02,14.90
2009,09,11,07,03,15.00
2009,09,11,07,04,15.00
2009,09,11,07,05,15.00
2009,09,11,07,06,15.00
2009,09,11,07,07,15.00
2009,09,11,07,08,15.00
2009,09,11,07,09,15.00
2009,09,11,07,10,15.00
2009,09,11,07,11,15.00
2009,09,11,07,12,15.00
2009,09,11,07,13,15.00
2009,09,11,07,14,15.00
2009,09,11,07,15,15.00
2009,09,11,07,16,15.00
2009,09,11,07,17,15.00
2009,09,11,07,18,15.00
2009,09,11,07,19,15.00
2009,09,11,07,20,15.00
2009,09,11,07,21,15.00
2009,09,11,07,22,15.00
2009,09,11,07,23,15.00
2009,09,11,07,24,15.00
2009,09,11,07,25,15.00
2009,09,11,07,26,15.00
2009,09,11,07,27,15.10
2009,09,11,07,28,15.10
2009,09,11,07,29,15.10
2009,09,11,07,30,15.10
2009,09,11,07,31,15.20
2009,09,11,07,32,15.20
2009,09,11,07,33,15.20
2009,09,11,07,34,15.20
2009,09,11,07,35,15.20
2009,09,11,07,36,15.20
2009,09,11,07,37,15.20
2009,09,11,07,38,15.10
2009,09,11,07,39,15.10
2009,09,11,07,40,15.00
2009,09,11,07,41,15.00
2009,09,11,07,42,15.00
2009,09,11,07,43,15.00
2009,09,11,07,44,15.00
2009,09,11,07,45,15.00
2009,09,11,07,46,14.90
2009,09,11,07,47,14.80
2009,09,11,07,48,14.80
2009,09,11,07,49,14.80
2009,09,11,07,50,14.70
2009,09,11,07,51,14.70
2009,09,11,07,52,14.70
2009,09,11,07,53,14.60
2009,09,11,07,54,14.60
2009,09,11,07,55,14.60
2009,09,11,07,56,14.60
2009,09,11,07,57,14.60
2009,09,11,07,58,14.60
2009,09,11,07,59,14.50
2009,09,11,08,00,14.50
2009,09,11,08,01,14.50
2009,09,11,08,02,14.60
2009,09,11,08,03,14.60
2009,09,11,08,04,14.60
2009,09,11,08,05,14.70
2009,09,11,08,06,14.70
2009,09,11,08,07,14.80
2009,09,11,08,08,14.80
2009,09,11,08,09,14.80
2009,09,11,08,10,14.90
2009,09,11,08,11,15.00
2009,09,11,08,12,15.00
2009,09,11,08,13,15.00
2009,09,11,08,14,15.00
2009,09,11,08,15,15.00
2009,09,11,08,16,15.00
2009,09,11,08,17,15.00
2009,09,11,08,18,15.00
2009,09,11,08,19,15.10
2009,09,11,08,20,15.20
2009,09,11,08,21,15.30
2009,09,11,08,22,15.30
2009,09,11,08,23,15.40
2009,09,11,08,24,15.50
2009,09,11,08,25,15.50
2009,09,11,08,26,15.60
2009,09,11,08,27,15.70
2009,09,11,08,28,15.80
2009,09,11,08,29,15.80
2009,09,11,08,30,15.90
2009,09,11,08,31,16.00
2009,09,11,08,32,16.10
2009,09,11,08,33,16.10
2009,09,11,08,34,16.20
2009,09,11,08,35,16.30
2009,09,11,08,36,16.30
2009,09,11,08,37,16.30
2009,09,11,08,38,16.40
2009,09,11,08,39,16.40
2009,09,11,08,40,16.50
2009,09,11,08,41,16.60
2009,09,11,08,42,16.60
2009,09,11,08,43,16.70
2009,09,11,08,44,16.80
2009,09,11,08,45,16.80
2009,09,11,08,46,16.90
2009,09,11,08,47,17.00
2009,09,11,08,48,17.10
2009,09,11,08,49,17.10
2009,09,11,08,50,17.20
2009,09,11,08,51,17.30
2009,09,11,08,52,17.30
2009,09,11,08,53,17.40
2009,09,11,08,54,17.50
2009,09,11,08,55,17.50
2009,09,11,08,56,17.60
2009,09,11,08,57,17.70
2009,09,11,08,58,17.70
2009,09,11,08,59,17.80
2009,09,11,09,00,17.90
2009,09,11,09,01,17.90
2009,09,11,09,02,18.00
2009,09,11,09,03,18.10
2009,09,11,09,04,18.20
2009,09,11,09,05,18.20
2009,09,11,09,06,18.30
2009,09,11,09,07,18.40
2009,09,11,09,08,18.40
2009,09,11,09,09,18.50
2009,09,11,09,10,18.60
2009,09,11,09,11,18.60
2009,09,11,09,12,18.70
2009,09,11,09,13,18.70
2009,09,11,09,14,18.70
2009,09,11,09,15,18.70
2009,09,11,09,16,18.60
2009,09,11,09,17,18.60
2009,09,11,09,18,18.60
2009,09,11,09,19,18.60
2009,09,11,09,20,18.60
2009,09,11,09,21,18.60
2009,09,11,09,22,18.60
2009,09,11,09,23,18.60
2009,09,11,09,24,18.60
2009,09,11,09,25,18.60
2009,09,11,09,26,18.70
2009,09,11,09,27,18.70
2009,09,11,09,28,18.70
2009,09,11,09,29,18.70
2009,09,11,09,30,18.80
2009,09,11,09,31,18.80
2009,09,11,09,32,18.90
2009,09,11,09,33,18.90
2009,09,11,09,34,18.90
2009,09,11,09,35,18.90
2009,09,11,09,36,18.90
2009,09,11,09,37,19.00
2009,09,11,09,38,19.10
2009,09,11,09,39,19.10
2009,09,11,09,40,19.10
2009,09,11,09,41,19.20
2009,09,11,09,42,19.20
2009,09,11,09,43,19.20
2009,09,11,09,44,19.30
2009,09,11,09,45,19.30
2009,09,11,09,46,19.30
2009,09,11,09,47,19.40
2009,09,11,09,48,19.40
2009,09,11,09,49,19.50
2009,09,11,09,50,19.50
2009,09,11,09,51,19.60
2009,09,11,09,52,19.60
2009,09,11,09,53,19.70
2009,09,11,09,54,19.70
2009,09,11,09,55,19.80
2009,09,11,09,56,19.80
2009,09,11,09,57,19.80
2009,09,11,09,58,19.90
2009,09,11,09,59,19.90
2009,09,11,10,00,19.90
2009,09,11,10,01,20.00
2009,09,11,10,02,20.00
2009,09,11,10,03,20.10
2009,09,11,10,04,20.10
2009,09,11,10,05,20.20
2009,09,11,10,06,20.30
2009,09,11,10,07,20.30
2009,09,11,10,08,20.40
2009,09,11,10,09,20.50
2009,09,11,10,10,20.60
2009,09,11,10,11,20.60
2009,09,11,10,12,20.70
2009,09,11,10,13,20.80
2009,09,11,10,14,20.80
2009,09,11,10,15,20.80
2009,09,11,10,16,20.80
2009,09,11,10,17,20.80
2009,09,11,10,18,20.80
2009,09,11,10,19,20.80
2009,09,11,10,20,20.80
2009,09,11,10,21,20.90
2009,09,11,10,22,20.90
2009,09,11,10,23,20.90
2009,09,11,10,24,20.90
2009,09,11,10,25,21.00
2009,09,11,10,26,21.00
2009,09,11,10,27,21.00
2009,09,11,10,28,20.90
2009,09,11,10,29,21.00
2009,09,11,10,30,21.00
2009,09,11,10,31,21.10
2009,09,11,10,32,21.10
2009,09,11,10,33,21.20
2009,09,11,10,34,21.20
2009,09,11,10,35,21.20
2009,09,11,10,36,21.20
2009,09,11,10,37,21.20
2009,09,11,10,38,21.30
2009,09,11,10,39,21.30
2009,09,11,10,40,21.30
2009,09,11,10,41,21.30
2009,09,11,10,42,21.30
2009,09,11,10,43,21.30
2009,09,11,10,44,21.30
2009,09,11,10,45,21.30
2009,09,11,10,46,21.30
2009,09,11,10,47,21.30
2009,09,11,10,48,21.20
2009,09,11,10,49,21.20
2009,09,11,10,50,21.20
2009,09,11,10,51,21.10
2009,09,11,10,52,21.10
2009,09,11,10,53,21.10
2009,09,11,10,54,21.10
2009,09,11,10,55,21.10
2009,09,11,10,56,21.10
2009,09,11,10,57,21.20
2009,09,11,10,58,21.20
2009,09,11,10,59,21.20
2009,09,11,11,00,21.30
2009,09,11,11,01,21.30
2009,09,11,11,02,21.30
2009,09,11,11,03,21.30
2009,09,11,11,04,21.30
2009,09,11,11,05,21.30
2009,09,11,11,06,21.30
2009,09,11,11,07,21.30
2009,09,11,11,08,21.20
2009,09,11,11,09,21.20
2009,09,11,11,10,21.10
2009,09,11,11,11,21.10
2009,09,11,11,12,21.00
2009,09,11,11,13,21.00
2009,09,11,11,14,20.90
2009,09,11,11,15,21.00
2009,09,11,11,16,21.00
2009,09,11,11,17,21.00
2009,09,11,11,18,21.10
2009,09,11,11,19,21.10
2009,09,11,11,20,21.20
2009,09,11,11,21,21.20
2009,09,11,11,22,21.30
2009,09,11,11,23,21.30
2009,09,11,11,24,21.30
2009,09,11,11,25,21.30
2009,09,11,11,26,21.30
2009,09,11,11,27,21.30
2009,09,11,11,28,21.20
2009,09,11,11,29,21.20
2009,09,11,11,30,21.10
2009,09,11,11,31,21.10
2009,09,11,11,32,21.10
2009,09,11,11,33,21.20
2009,09,11,11,34,21.10
2009,09,11,11,35,21.10
2009,09,11,11,36,21.10
2009,09,11,11,37,21.20
2009,09,11,11,38,21.20
2009,09,11,11,39,21.30
2009,09,11,11,40,21.30
2009,09,11,11,41,21.30
2009,09,11,11,42,21.30
2009,09,11,11,43,21.20
2009,09,11,11,44,21.20
2009,09,11,11,45,21.20
2009,09,11,11,46,21.20
2009,09,11,11,47,21.30
2009,09,11,11,48,21.30
2009,09,11,11,49,21.40
2009,09,11,11,50,21.40
2009,09,11,11,51,21.50
2009,09,11,11,52,21.60
2009,09,11,11,53,21.60
2009,09,11,11,54,21.70
2009,09,11,11,55,21.80
2009,09,11,11,56,21.80
2009,09,11,11,57,21.80
2009,09,11,11,58,21.80
2009,09,11,11,59,21.90
2009,09,11,12,00,21.90
2009,09,11,12,01,21.90
2009,09,11,12,02,21.90
2009,09,11,12,03,21.90
2009,09,11,12,04,21.80
2009,09,11,12,05,21.80
2009,09,11,12,06,21.80
2009,09,11,12,07,21.80
2009,09,11,12,08,21.80
2009,09,11,12,09,21.80
2009,09,11,12,10,21.90
2009,09,11,12,11,21.90
2009,09,11,12,12,21.90
2009,09,11,12,13,21.90
2009,09,11,12,14,21.90
2009,09,11,12,15,21.90
2009,09,11,12,16,21.90
2009,09,11,12,17,21.80
2009,09,11,12,18,21.80
2009,09,11,12,19,21.80
2009,09,11,12,20,21.80
2009,09,11,12,21,21.80
2009,09,11,12,22,21.80
2009,09,11,12,23,21.80
2009,09,11,12,24,21.80
2009,09,11,12,25,21.80
2009,09,11,12,26,21.80
2009,09,11,12,27,21.80
2009,09,11,12,28,21.80
2009,09,11,12,29,21.90
2009,09,11,12,30,21.90
2009,09,11,12,31,22.00
2009,09,11,12,32,22.00
2009,09,11,12,33,22.10
2009,09,11,12,34,22.20
2009,09,11,12,35,22.20
2009,09,11,12,36,22.30
2009,09,11,12,37,22.30
2009,09,11,12,38,22.30
2009,09,11,12,39,22.30
2009,09,11,12,40,22.30
2009,09,11,12,41,22.40
2009,09,11,12,42,22.40
2009,09,11,12,43,22.50
2009,09,11,12,44,22.50
2009,09,11,12,45,22.60
2009,09,11,12,46,22.60
2009,09,11,12,47,22.60
2009,09,11,12,48,22.60
2009,09,11,12,49,22.60
2009,09,11,12,50,22.50
2009,09,11,12,51,22.40
2009,09,11,12,52,22.50
2009,09,11,12,53,22.50
2009,09,11,12,54,22.50
2009,09,11,12,55,22.60
2009,09,11,12,56,22.60
2009,09,11,12,57,22.60
2009,09,11,12,58,22.70
2009,09,11,12,59,22.70
2009,09,11,13,00,22.70
2009,09,11,13,01,22.70
2009,09,11,13,02,22.80
2009,09,11,13,03,22.80
2009,09,11,13,04,22.70
2009,09,11,13,05,22.70
2009,09,11,13,06,22.70
2009,09,11,13,07,22.70
2009,09,11,13,08,22.70
2009,09,11,13,09,22.70
2009,09,11,13,10,22.70
2009,09,11,13,11,22.80
2009,09,11,13,12,22.80
2009,09,11,13,13,22.80
2009,09,11,13,14,22.80
2009,09,11,13,15,22.70
2009,09,11,13,16,22.70
2009,09,11,13,17,22.70
2009,09,11,13,18,22.80
2009,09,11,13,19,22.80
2009,09,11,13,20,22.90
2009,09,11,13,21,22.90
2009,09,11,13,22,23.00
2009,09,11,13,23,23.10
2009,09,11,13,24,23.10
2009,09,11,13,25,23.10
2009,09,11,13,26,23.20
2009,09,11,13,27,23.20
2009,09,11,13,28,23.20
2009,09,11,13,29,23.20
2009,09,11,13,30,23.20
2009,09,11,13,31,23.30
2009,09,11,13,32,23.30
2009,09,11,13,33,23.30
2009,09,11,13,34,23.20
2009,09,11,13,35,23.20
2009,09,11,13,36,23.20
2009,09,11,13,37,23.10
2009,09,11,13,38,23.10
2009,09,11,13,39,23.00
2009,09,11,13,40,22.90
2009,09,11,13,41,22.90
2009,09,11,13,42,22.90
2009,09,11,13,43,22.90
2009,09,11,13,44,22.90
2009,09,11,13,45,22.90
2009,09,11,13,46,22.90
2009,09,11,13,47,23.00
2009,09,11,13,48,23.00
2009,09,11,13,49,23.10
2009,09,11,13,50,23.10
2009,09,11,13,51,23.10
2009,09,11,13,52,23.20
2009,09,11,13,53,23.30
2009,09,11,13,54,23.30
2009,09,11,13,55,23.40
2009,09,11,13,56,23.50
2009,09,11,13,57,23.50
2009,09,11,13,58,23.60
2009,09,11,13,59,23.50
2009,09,11,14,00,23.50
2009,09,11,14,01,23.50
2009,09,11,14,02,23.50
2009,09,11,14,03,23.40
2009,09,11,14,04,23.40
2009,09,11,14,05,23.40
2009,09,11,14,06,23.30
2009,09,11,14,07,23.30
2009,09,11,14,08,23.30
2009,09,11,14,09,23.30
2009,09,11,14,10,23.30
2009,09,11,14,11,23.40
2009,09,11,14,12,23.40
2009,09,11,14,13,23.50
2009,09,11,14,14,23.60
2009,09,11,14,15,23.60
2009,09,11,14,16,23.70
2009,09,11,14,17,23.70
2009,09,11,14,18,23.70
2009,09,11,14,19,23.70
2009,09,11,14,20,23.70
2009,09,11,14,21,23.70
2009,09,11,14,22,23.70
2009,09,11,14,23,23.70
2009,09,11,14,24,23.70
2009,09,11,14,25,23.70
2009,09,11,14,26,23.70
2009,09,11,14,27,23.70
2009,09,11,14,28,23.80
2009,09,11,14,29,23.70
2009,09,11,14,30,23.70
2009,09,11,14,31,23.70
2009,09,11,14,32,23.80
2009,09,11,14,33,23.80
2009,09,11,14,34,23.80
2009,09,11,14,35,23.80
2009,09,11,14,36,23.90
2009,09,11,14,37,23.90
2009,09,11,14,38,24.00
2009,09,11,14,39,23.90
2009,09,11,14,40,23.90
2009,09,11,14,41,23.90
2009,09,11,14,42,23.90
2009,09,11,14,43,23.80
2009,09,11,14,44,23.80
2009,09,11,14,45,23.80
2009,09,11,14,46,23.90
2009,09,11,14,47,24.00
2009,09,11,14,48,24.00
2009,09,11,14,49,24.10
2009,09,11,14,50,24.10
2009,09,11,14,51,24.10
2009,09,11,14,52,24.10
2009,09,11,14,53,24.00
2009,09,11,14,54,24.00
2009,09,11,14,55,24.10
2009,09,11,14,56,24.10
2009,09,11,14,57,24.00
2009,09,11,14,58,24.00
2009,09,11,14,59,23.90
2009,09,11,15,00,23.90
2009,09,11,15,01,23.80
2009,09,11,15,02,23.90
2009,09,11,15,03,23.90
2009,09,11,15,04,24.00
2009,09,11,15,05,24.00
2009,09,11,15,06,23.90
2009,09,11,15,07,23.90
2009,09,11,15,08,24.00
2009,09,11,15,09,24.10
2009,09,11,15,10,24.20
2009,09,11,15,11,24.30
2009,09,11,15,12,24.30
2009,09,11,15,13,24.30
2009,09,11,15,14,24.40
2009,09,11,15,15,24.40
2009,09,11,15,16,24.50
2009,09,11,15,17,24.50
2009,09,11,15,18,24.60
2009,09,11,15,19,24.60
2009,09,11,15,20,24.50
2009,09,11,15,21,24.60
2009,09,11,15,22,24.60
2009,09,11,15,23,24.60
2009,09,11,15,24,24.70
2009,09,11,15,25,24.70
2009,09,11,15,26,24.80
2009,09,11,15,27,24.80
2009,09,11,15,28,24.80
2009,09,11,15,29,24.80
2009,09,11,15,30,24.90
2009,09,11,15,31,24.90
2009,09,11,15,32,24.90
2009,09,11,15,33,24.90
2009,09,11,15,34,24.90
2009,09,11,15,35,24.80
2009,09,11,15,36,24.80
2009,09,11,15,37,24.80
2009,09,11,15,38,24.80
2009,09,11,15,39,24.80
2009,09,11,15,40,24.80
2009,09,11,15,41,24.80
2009,09,11,15,42,24.80
2009,09,11,15,43,24.80
2009,09,11,15,44,24.80
2009,09,11,15,45,24.90
2009,09,11,15,46,24.90
2009,09,11,15,47,24.90
2009,09,11,15,48,24.90
2009,09,11,15,49,24.90
2009,09,11,15,50,24.90
2009,09,11,15,51,24.80
2009,09,11,15,52,24.80
2009,09,11,15,53,24.80
2009,09,11,15,54,24.80
2009,09,11,15,55,24.70
2009,09,11,15,56,24.70
2009,09,11,15,57,24.70
2009,09,11,15,58,24.70
2009,09,11,15,59,24.80
2009,09,11,16,00,24.80
2009,09,11,16,01,24.80
2009,09,11,16,02,24.80
2009,09,11,16,03,24.80
2009,09,11,16,04,24.80
2009,09,11,16,05,24.80
2009,09,11,16,06,24.80
2009,09,11,16,07,24.80
2009,09,11,16,08,24.90
2009,09,11,16,09,24.90
2009,09,11,16,10,24.90
2009,09,11,16,11,24.80
2009,09,11,16,12,24.80
2009,09,11,16,13,24.70
2009,09,11,16,14,24.70
2009,09,11,16,15,24.70
2009,09,11,16,16,24.80
2009,09,11,16,17,24.80
2009,09,11,16,18,24.80
2009,09,11,16,19,24.80
2009,09,11,16,20,24.70
2009,09,11,16,21,24.70
2009,09,11,16,22,24.70
2009,09,11,16,23,24.70
2009,09,11,16,24,24.70
2009,09,11,16,25,24.70
2009,09,11,16,26,24.80
2009,09,11,16,27,24.80
2009,09,11,16,28,24.90
2009,09,11,16,29,24.90
2009,09,11,16,30,24.90
2009,09,11,16,31,24.90
2009,09,11,16,32,24.90
2009,09,11,16,33,24.90
2009,09,11,16,34,24.90
2009,09,11,16,35,24.90
2009,09,11,16,36,24.90
2009,09,11,16,37,24.90
2009,09,11,16,38,25.00
2009,09,11,16,39,25.00
2009,09,11,16,40,25.10
2009,09,11,16,41,25.10
2009,09,11,16,42,25.20
2009,09,11,16,43,25.20
2009,09,11,16,44,25.20
2009,09,11,16,45,25.20
2009,09,11,16,46,25.10
2009,09,11,16,47,25.00
2009,09,11,16,48,24.90
2009,09,11,16,49,24.90
2009,09,11,16,50,24.90
2009,09,11,16,51,24.90
2009,09,11,16,52,24.90
2009,09,11,16,53,24.90
2009,09,11,16,54,25.00
2009,09,11,16,55,25.10
2009,09,11,16,56,25.10
2009,09,11,16,57,25.10
2009,09,11,16,58,25.10
2009,09,11,16,59,25.10
2009,09,11,17,00,25.10
2009,09,11,17,01,25.00
2009,09,11,17,02,25.00
2009,09,11,17,03,25.00
2009,09,11,17,04,24.90
2009,09,11,17,05,24.90
2009,09,11,17,06,24.90
2009,09,11,17,07,24.90
2009,09,11,17,08,24.90
2009,09,11,17,09,24.90
2009,09,11,17,10,24.80
2009,09,11,17,11,24.80
2009,09,11,17,12,24.80
2009,09,11,17,13,24.80
2009,09,11,17,14,24.80
2009,09,11,17,15,24.80
2009,09,11,17,16,24.80
2009,09,11,17,17,24.80
2009,09,11,17,18,24.90
2009,09,11,17,19,24.90